SCP
0 -0 0 0 0 0 0 0 0 0 0 0 0 0 0 0 1 1 1 1 1 0 0 0 0 0 0 0 0 0 0 0 0 0 -0 -0 -0 -0 -0 -0 -0 -0 -0
0 -0 0 0 0 0 0 0 0 0 0 0 0 1 1 1 0 1 1 1 0 0 0 0 0 0 0 0 0 0 0 0 0 0 0 -0 -0 -0 -0 -0 -0 -0 -0
0 -0 0 0 0 0 0 0 0 0 0 0 0 0 1 0 0 0 0 0 0 0 0 0 0 0 0 0 0 0 0 0 0 0 0 0 0 -0 -0 -0 -0 -0 -0
0 0 0 0 0 0 0 0 0 0 0 0 0 0 0 0 0 0 0 0 0 0 0 0 0 0 0 0 0 0 0 0 0 0 0 0 0 -0 -0 -0 -0 -0 -0
0 0 0 0 0 0 0 0 0 0 0 0 0 0 0 0 0 0 0 0 0 0 0 0 0 0 0 0 0 0 0 0 0 0 0 0 0 0 -0 -0 -0 -0 -0
0 0 -0 0 0 0 0 0 1 1 1 0 0 0 0 0 0 0 -0 0 0 0 0 0 0 0 0 0 0 0 0 0 -0 0 0 0 0 0 0 0 0 -0 -0
0 0 0 0 0 0 0 0 1 1 1 0 0 0 0 -0 0 0 0 -0 0 0 1 1 1 0 0 0 0 0 0 -0 0 0 0 0 0 0 -0 0 0 0 -0
0 0 0 0 0 0 0 0 1 1 1 0 0 0 -0 0 0 0 0 0 0 0 1 1 0 0 0 0 0 0 -0 -0 -0 -0 0 0 0 0 0 0 0 0 0
1 1 0 0 0 0 0 0 0 1 0 0 0 0 0 0 0 0 0 0 0 0 0 -0 0 0 0 0 0 0 0 0 0 0 0 0 0 0 0 0 0 0 0
1 1 1 0 0 0 0 0 0 0 0 0 0 0 0 0 0 0 0 0 0 0 0 0 0 0 0 0 0 0 0 0 0 0 0 0 0 0 0 0 0 0 0
1 1 1 1 1 0 0 0 0 0 0 0 1 0 0 0 0 0 0 0 0 0 0 0 0 0 0 0 0 0 0 0 0 0 0 0 0 0 0 0 0 0 0
0 1 1 1 1 1 1 1 0 0 1 1 1 1 1 0 0 0 0 0 0 0 0 0 0 0 0 0 0 0 0 0 0 0 0 0 0 0 0 0 0 0 0
0 0 1 1 1 1 0 1 1 1 1 1 1 1 0 0 1 0 1 0 0 0 0 0 0 0 0 0 -0 0 0 0 0 0 0 0 0 0 0 0 0 0 0
0 0 1 1 1 1 1 1 1 1 1 1 1 0 1 1 1 0 1 0 0 1 0 1 1 0 0 0 0 0 0 0 0 0 0 0 0 0 0 0 0 0 0
0 0 1 1 1 1 1 1 1 1 1 1 1 0 0 1 0 0 0 0 0 1 1 1 0 0 0 0 0 0 0 0 0 0 0 0 0 0 0 0 0 0 0
0 1 1 1 1 1 1 1 1 0 0 1 1 0 0 0 0 0 0 0 0 1 1 1 0 0 0 0 0 0 0 0 0 0 0 0 0 0 0 0 0 0 0
0 0 1 1 1 1 1 1 1 0 0 1 1 0 0 0 0 0 0 0 0 1 0 0 0 0 0 0 0 0 0 0 0 0 0 0 0 0 0 0 0 0 0
0 0 1 2 1 1 1 1 1 0 1 0 0 1 0 0 0 0 0 0 0 0 0 0 0 0 0 0 0 0 0 0 0 0 0 0 0 0 0 0 0 0 0
0 0 1 2 1 1 1 1 1 1 1 0 0 0 0 0 0 0 0 0 0 0 0 0 0 0 0 0 0 0 0 0 0 0 0 0 0 0 0 0 0 0 0
0 0 0 2 2 1 1 1 1 1 1 0 0 0 0 0 0 0 0 0 0 0 0 0 0 0 0 0 0 0 0 0 0 0 0 0 0 0 0 0 0 0 0
0 0 0 1 2 2 2 2 2 1 0 0 0 0 0 0 0 0 0 0 0 0 0 0 0 0 0 0 0 0 0 0 0 0 0 0 0 0 0 0 0 0 0
0 0 0 1 1 2 1 1 1 2 0 0 0 0 0 0 0 0 0 0 0 0 0 0 0 0 0 0 0 0 0 0 0 0 0 0 0 0 0 0 0 0 0
0 0 0 0 0 1 1 1 2 1 0 0 0 0 0 0 0 0 0 0 0 0 0 0 0 0 0 0 0 0 0 0 0 0 0 0 0 0 0 0 0 0 0
0 0 0 0 0 1 1 1 2 1 1 0 0 0 0 0 0 0 0 0 0 0 0 0 -0 0 0 0 0 0 0 0 0 0 0 0 0 0 0 0 0 0 0
0 0 0 0 0 1 1 1 2 1 1 0 0 0 0 0 0 0 0 0 0 0 0 0 0 -0 0 0 0 0 0 0 0 0 0 0 0 0 0 0 0 0 0
0 0 0 0 0 1 1 1 2 1 1 1 0 0 0 0 0 0 0 0 0 0 0 0 0 0 0 0 0 0 0 0 0 0 0 0 0 0 0 0 0 0 0
Wind_Speed_500mb
12 17 14 13 15 19 23 22 21 18 17 18 22 27 26 25 22 20 22 24 24 23 23 26 26 27 28 26 25 22 23 27 29 32 36 38 40 41 40 40 36 41 40
24 15 12 12 16 21 24 24 22 19 19 19 25 29 30 28 25 24 25 26 26 23 23 27 25 23 26 26 24 23 26 31 33 35 37 39 43 44 40 39 37 41 39
26 15 14 14 17 20 21 22 21 20 19 21 27 31 34 32 28 27 28 28 26 26 26 24 23 24 26 25 24 23 28 29 29 32 34 38 39 39 37 32 38 39 37
24 14 12 13 13 15 19 21 20 20 20 22 27 32 34 35 32 30 31 29 27 24 21 22 24 25 25 24 24 25 28 30 33 34 33 35 38 36 31 32 33 30 29
23 17 12 11 12 15 20 22 22 21 22 24 27 32 34 36 33 29 32 29 25 21 19 20 21 22 23 25 24 26 28 32 35 27 31 35 34 34 31 28 28 26 25
23 21 20 18 17 20 23 24 24 24 25 27 29 32 34 34 33 33 34 30 24 22 21 19 16 18 21 24 25 27 30 34 29 21 27 30 28 29 27 27 25 21 17
25 24 25 23 20 21 23 26 27 27 28 28 30 32 34 34 36 35 37 32 30 30 28 23 19 20 22 25 28 28 32 34 26 29 23 24 23 25 25 24 23 20 18
27 28 27 27 25 24 26 28 29 30 31 31 31 30 31 38 41 40 41 35 32 30 31 28 26 29 26 31 30 31 32 30 21 27 22 21 20 25 25 24 19 19 19
31 32 31 30 28 27 28 30 32 32 32 33 31 33 36 41 46 48 42 36 27 32 32 38 38 37 35 40 37 35 36 32 17 20 20 22 22 22 25 22 23 24 24
33 35 35 32 32 31 31 32 33 34 34 34 35 38 42 44 44 49 46 46 30 39 36 42 39 38 39 35 38 39 36 30 15 24 23 23 22 28 29 30 31 27 27
33 34 35 32 31 31 29 30 34 36 36 37 40 42 43 44 48 50 51 60 35 40 45 42 35 40 46 42 38 40 37 29 27 31 31 24 25 32 34 32 30 28 28
36 35 32 32 30 32 29 31 30 35 39 41 44 45 48 43 45 47 49 65 45 43 48 41 37 45 49 46 61 48 37 31 34 21 22 21 27 37 36 34 32 29 26
40 37 38 35 33 28 25 28 23 26 29 35 42 46 48 46 48 47 43 52 51 44 46 48 42 49 49 43 55 50 44 41 34 31 31 24 29 31 35 33 29 29 30
46 45 41 39 37 36 28 29 34 35 34 34 38 43 48 50 50 47 47 44 41 47 49 47 53 51 46 48 51 54 42 43 36 24 24 23 26 27 27 31 35 32 32
51 47 46 44 41 38 36 28 25 28 35 40 36 42 44 46 48 46 43 39 39 47 60 54 51 50 48 55 60 54 46 36 36 28 26 26 29 29 28 26 32 34 33
51 50 48 47 46 40 37 34 29 29 35 37 38 41 44 48 48 47 48 48 54 55 57 57 58 50 52 59 60 56 45 38 22 25 23 34 32 27 24 30 31 32 34
50 49 51 45 49 47 41 36 30 26 25 37 41 41 45 46 53 46 49 52 53 54 63 60 53 43 65 57 62 55 45 39 30 23 25 33 37 29 26 32 32 30 31
49 49 48 46 50 52 45 40 33 31 29 27 40 42 47 45 51 48 44 53 54 58 62 61 55 52 68 57 57 55 45 39 36 25 21 31 34 34 33 33 34 32 33
53 49 50 51 51 51 50 42 38 35 34 29 32 36 46 44 46 51 45 42 44 50 53 55 53 60 77 63 53 48 46 41 37 33 33 32 37 36 34 40 38 32 34
54 48 52 53 52 51 52 47 39 38 49 38 37 34 36 39 44 46 49 50 47 50 50 53 55 78 63 72 56 47 46 38 35 39 35 25 31 38 33 37 41 38 36
47 46 52 58 57 56 64 59 50 51 53 47 46 41 32 34 40 48 44 47 45 43 40 45 58 62 73 72 61 49 43 38 43 38 41 32 31 35 36 37 36 36 44
54 47 52 57 56 61 62 59 48 57 53 43 46 43 45 37 38 40 44 45 40 34 29 40 72 75 65 76 71 62 30 34 40 34 35 39 33 35 40 43 36 33 31
58 54 51 54 58 60 52 49 49 42 42 48 47 49 47 38 40 41 44 48 40 32 27 43 61 65 80 67 68 41 27 16 35 34 40 45 35 35 31 39 39 37 36
66 62 57 55 57 60 56 54 60 52 49 48 47 47 44 43 43 46 45 48 47 34 34 47 42 66 79 80 62 42 43 33 33 20 38 47 48 43 43 39 41 40 42
65 66 63 60 60 61 64 63 63 55 44 34 36 35 44 43 48 48 45 42 56 44 37 40 48 52 67 81 71 66 62 46 45 38 35 47 48 58 42 50 42 48 47
58 67 66 64 64 66 66 69 69 59 47 42 39 37 43 41 47 42 44 48 46 58 64 52 54 60 63 74 76 76 70 65 46 54 36 49 55 51 58 48 53 46 44
Wind_Direction_500mb
160 204 175 189 195 194 196 199 203 204 209 208 212 212 207 197 190 184 176 171 168 170 176 180 178 179 180 179 173 173 172 172 168 161 152 143 136 131 128 125 124 124 125
159 181 179 186 192 190 185 189 194 199 208 216 217 212 210 203 195 188 182 177 171 165 173 178 183 184 179 177 176 168 161 157 154 151 146 142 139 134 130 129 131 127 128
146 152 167 191 200 193 184 182 190 197 204 212 216 212 209 206 201 194 186 179 172 174 180 178 180 186 185 180 174 169 164 159 153 147 142 135 142 141 139 139 129 131 132
146 160 182 197 203 201 193 191 192 193 198 205 210 210 207 208 207 199 187 181 181 183 183 178 176 183 184 178 179 173 166 159 153 145 141 140 143 146 145 141 140 145 147
154 164 177 182 199 203 198 197 195 195 197 203 206 208 210 210 209 195 195 189 186 183 179 179 181 184 190 185 185 179 170 163 153 141 141 138 142 148 149 146 143 147 161
162 166 171 185 198 202 200 200 200 200 201 203 208 211 210 211 205 200 195 194 189 188 182 182 188 196 201 198 192 182 171 163 151 152 145 144 145 151 153 154 160 164 174
168 177 189 199 207 211 208 206 205 205 207 207 211 216 215 209 209 208 201 201 190 195 192 189 206 218 217 206 190 186 175 160 150 164 163 174 167 169 169 172 175 179 191
177 186 203 205 207 213 214 213 213 212 210 211 217 219 216 211 211 212 208 207 203 215 203 208 197 219 214 201 199 194 173 167 172 183 167 192 207 189 187 187 194 197 191
191 201 213 212 208 214 220 220 221 220 217 217 217 214 211 214 217 217 215 220 218 211 217 247 236 216 210 199 199 194 185 176 168 179 200 203 198 184 181 182 179 181 180
200 209 215 220 218 216 220 224 227 228 225 222 217 213 212 215 217 215 227 219 228 228 257 252 213 210 210 204 201 201 199 183 182 189 194 201 189 179 178 178 180 183 183
200 205 209 211 218 220 221 222 226 231 230 227 221 217 215 217 216 223 227 217 242 233 250 221 210 213 208 208 208 213 203 182 192 206 216 220 196 185 183 183 187 189 184
206 205 205 202 205 203 216 222 226 231 231 231 227 223 215 212 222 217 225 225 244 228 223 214 234 225 213 224 208 214 196 198 186 199 193 217 203 190 190 189 193 191 175
216 214 208 205 203 208 204 215 205 227 228 228 228 222 217 214 218 221 220 228 232 229 213 212 226 223 225 242 199 203 189 199 199 214 219 221 194 204 201 193 184 172 174
219 221 215 209 206 207 202 220 219 211 219 218 233 229 222 217 215 215 217 219 220 220 209 219 221 223 236 210 206 200 192 170 200 195 214 211 196 199 201 184 177 174 172
223 220 218 210 209 208 201 215 208 219 237 234 226 232 226 223 222 216 219 216 208 213 218 224 230 237 257 211 204 197 176 181 197 212 217 203 191 196 199 191 177 177 176
228 222 219 213 208 207 206 216 220 236 237 240 222 225 228 227 228 226 233 230 229 234 223 235 243 252 239 200 196 190 174 184 192 197 206 189 193 199 206 179 181 184 185
229 224 216 215 210 206 208 211 210 222 237 238 229 225 233 228 231 229 237 238 237 233 232 248 246 253 213 212 189 180 179 176 181 195 200 186 187 192 190 186 191 194 194
229 224 213 213 211 208 206 208 210 211 214 248 230 228 231 233 231 235 231 233 236 236 244 246 246 233 204 195 187 171 179 175 179 188 191 181 190 185 195 200 199 202 203
230 226 214 210 210 210 204 207 209 210 212 219 220 224 232 230 232 231 236 237 236 239 245 249 239 236 221 197 186 167 184 172 179 176 188 187 196 195 196 200 204 207 214
228 226 215 210 212 207 205 205 209 212 223 216 219 220 226 228 236 232 236 239 237 242 244 242 237 214 213 194 178 172 174 177 180 181 177 185 197 191 187 209 198 205 215
226 220 213 209 209 208 215 205 205 218 233 227 235 226 222 222 231 233 234 236 240 246 248 236 232 206 190 197 168 169 171 177 188 187 184 182 199 201 198 203 208 206 214
225 221 215 210 206 211 217 208 208 221 232 225 234 228 218 220 224 229 229 233 235 241 226 234 213 208 199 173 167 162 155 164 180 184 186 185 201 200 207 199 208 204 219
231 225 220 214 210 210 209 201 203 212 224 217 226 226 225 221 230 230 227 231 226 241 225 224 210 206 184 173 177 168 146 162 176 197 203 193 194 206 205 218 211 210 211
239 232 223 219 213 208 207 201 204 202 209 218 218 227 215 220 227 226 229 232 229 226 203 217 212 211 185 183 189 186 189 193 186 193 210 210 199 202 209 218 212 216 216
243 235 222 221 215 208 209 201 204 203 207 205 203 218 221 214 221 229 226 224 220 208 206 202 203 202 193 198 191 198 213 212 223 202 203 210 212 206 206 216 217 222 225
243 236 225 215 214 209 206 201 205 203 197 197 193 210 217 214 213 219 230 228 222 216 218 220 216 214 208 202 208 210 211 205 210 205 209 203 212 219 217 216 221 218 227
Wind_Speed_850mb
12 17 14 13 15 19 23 22 21 18 17 18 22 27 26 25 22 20 22 24 24 23 23 26 26 27 28 26 25 22 23 27 29 32 36 38 40 41 40 40 36 41 40
24 15 12 12 16 21 24 24 22 19 19 19 25 29 30 28 25 24 25 26 26 23 23 27 25 23 26 26 24 23 26 31 33 35 37 39 43 44 40 39 37 41 39
26 15 14 14 17 20 21 22 21 20 19 21 27 31 34 32 28 27 28 28 26 26 26 24 23 24 26 25 24 23 28 29 29 32 34 38 39 39 37 32 38 39 37
24 14 12 13 13 15 19 21 20 20 20 22 27 32 34 35 32 30 31 29 27 24 21 22 24 25 25 24 24 25 28 30 33 34 33 35 38 36 31 32 33 30 29
23 17 12 11 12 15 20 22 22 21 22 24 27 32 34 36 33 29 32 29 25 21 19 20 21 22 23 25 24 26 28 32 35 27 31 35 34 34 31 28 28 26 25
23 21 20 18 17 20 23 24 24 24 25 27 29 32 34 34 33 33 34 30 24 22 21 19 16 18 21 24 25 27 30 34 29 21 27 30 28 29 27 27 25 21 17
25 24 25 23 20 21 23 26 27 27 28 28 30 32 34 34 36 35 37 32 30 30 28 23 19 20 22 25 28 28 32 34 26 29 23 24 23 25 25 24 23 20 18
27 28 27 27 25 24 26 28 29 30 31 31 31 30 31 38 41 40 41 35 32 30 31 28 26 29 26 31 30 31 32 30 21 27 22 21 20 25 25 24 19 19 19
31 32 31 30 28 27 28 30 32 32 32 33 31 33 36 41 46 48 42 36 27 32 32 38 38 37 35 40 37 35 36 32 17 20 20 22 22 22 25 22 23 24 24
33 35 35 32 32 31 31 32 33 34 34 34 35 38 42 44 44 49 46 46 30 39 36 42 39 38 39 35 38 39 36 30 15 24 23 23 22 28 29 30 31 27 27
33 34 35 32 31 31 29 30 34 36 36 37 40 42 43 44 48 50 51 60 35 40 45 42 35 40 46 42 38 40 37 29 27 31 31 24 25 32 34 32 30 28 28
36 35 32 32 30 32 29 31 30 35 39 41 44 45 48 43 45 47 49 65 45 43 48 41 37 45 49 46 61 48 37 31 34 21 22 21 27 37 36 34 32 29 26
40 37 38 35 33 28 25 28 23 26 29 35 42 46 48 46 48 47 43 52 51 44 46 48 42 49 49 43 55 50 44 41 34 31 31 24 29 31 35 33 29 29 30
46 45 41 39 37 36 28 29 34 35 34 34 38 43 48 50 50 47 47 44 41 47 49 47 53 51 46 48 51 54 42 43 36 24 24 23 26 27 27 31 35 32 32
51 47 46 44 41 38 36 28 25 28 35 40 36 42 44 46 48 46 43 39 39 47 60 54 51 50 48 55 60 54 46 36 36 28 26 26 29 29 28 26 32 34 33
51 50 48 47 46 40 37 34 29 29 35 37 38 41 44 48 48 47 48 48 54 55 57 57 58 50 52 59 60 56 45 38 22 25 23 34 32 27 24 30 31 32 34
50 49 51 45 49 47 41 36 30 26 25 37 41 41 45 46 53 46 49 52 53 54 63 60 53 43 65 57 62 55 45 39 30 23 25 33 37 29 26 32 32 30 31
49 49 48 46 50 52 45 40 33 31 29 27 40 42 47 45 51 48 44 53 54 58 62 61 55 52 68 57 57 55 45 39 36 25 21 31 34 34 33 33 34 32 33
53 49 50 51 51 51 50 42 38 35 34 29 32 36 46 44 46 51 45 42 44 50 53 55 53 60 77 63 53 48 46 41 37 33 33 32 37 36 34 40 38 32 34
54 48 52 53 52 51 52 47 39 38 49 38 37 34 36 39 44 46 49 50 47 50 50 53 55 78 63 72 56 47 46 38 35 39 35 25 31 38 33 37 41 38 36
47 46 52 58 57 56 64 59 50 51 53 47 46 41 32 34 40 48 44 47 45 43 40 45 58 62 73 72 61 49 43 38 43 38 41 32 31 35 36 37 36 36 44
54 47 52 57 56 61 62 59 48 57 53 43 46 43 45 37 38 40 44 45 40 34 29 40 72 75 65 76 71 62 30 34 40 34 35 39 33 35 40 43 36 33 31
58 54 51 54 58 60 52 49 49 42 42 48 47 49 47 38 40 41 44 48 40 32 27 43 61 65 80 67 68 41 27 16 35 34 40 45 35 35 31 39 39 37 36
66 62 57 55 57 60 56 54 60 52 49 48 47 47 44 43 43 46 45 48 47 34 34 47 42 66 79 80 62 42 43 33 33 20 38 47 48 43 43 39 41 40 42
65 66 63 60 60 61 64 63 63 55 44 34 36 35 44 43 48 48 45 42 56 44 37 40 48 52 67 81 71 66 62 46 45 38 35 47 48 58 42 50 42 48 47
58 67 66 64 64 66 66 69 69 59 47 42 39 37 43 41 47 42 44 48 46 58 64 52 54 60 63 74 76 76 70 65 46 54 36 49 55 51 58 48 53 46 44
Wind_Direction_850mb
160 204 175 189 195 194 196 199 203 204 209 208 212 212 207 197 190 184 176 171 168 170 176 180 178 179 180 179 173 173 172 172 168 161 152 143 136 131 128 125 124 124 125
159 181 179 186 192 190 185 189 194 199 208 216 217 212 210 203 195 188 182 177 171 165 173 178 183 184 179 177 176 168 161 157 154 151 146 142 139 134 130 129 131 127 128
146 152 167 191 200 193 184 182 190 197 204 212 216 212 209 206 201 194 186 179 172 174 180 178 180 186 185 180 174 169 164 159 153 147 142 135 142 141 139 139 129 131 132
146 160 182 197 203 201 193 191 192 193 198 205 210 210 207 208 207 199 187 181 181 183 183 178 176 183 184 178 179 173 166 159 153 145 141 140 143 146 145 141 140 145 147
154 164 177 182 199 203 198 197 195 195 197 203 206 208 210 210 209 195 195 189 186 183 179 179 181 184 190 185 185 179 170 163 153 141 141 138 142 148 149 146 143 147 161
162 166 171 185 198 202 200 200 200 200 201 203 208 211 210 211 205 200 195 194 189 188 182 182 188 196 201 198 192 182 171 163 151 152 145 144 145 151 153 154 160 164 174
168 177 189 199 207 211 208 206 205 205 207 207 211 216 215 209 209 208 201 201 190 195 192 189 206 218 217 206 190 186 175 160 150 164 163 174 167 169 169 172 175 179 191
177 186 203 205 207 213 214 213 213 212 210 211 217 219 216 211 211 212 208 207 203 215 203 208 197 219 214 201 199 194 173 167 172 183 167 192 207 189 187 187 194 197 191
191 201 213 212 208 214 220 220 221 220 217 217 217 214 211 214 217 217 215 220 218 211 217 247 236 216 210 199 199 194 185 176 168 179 200 203 198 184 181 182 179 181 180
200 209 215 220 218 216 220 224 227 228 225 222 217 213 212 215 217 215 227 219 228 228 257 252 213 210 210 204 201 201 199 183 182 189 194 201 189 179 178 178 180 183 183
200 205 209 211 218 220 221 222 226 231 230 227 221 217 215 217 216 223 227 217 242 233 250 221 210 213 208 208 208 213 203 182 192 206 216 220 196 185 183 183 187 189 184
206 205 205 202 205 203 216 222 226 231 231 231 227 223 215 212 222 217 225 225 244 228 223 214 234 225 213 224 208 214 196 198 186 199 193 217 203 190 190 189 193 191 175
216 214 208 205 203 208 204 215 205 227 228 228 228 222 217 214 218 221 220 228 232 229 213 212 226 223 225 242 199 203 189 199 199 214 219 221 194 204 201 193 184 172 174
219 221 215 209 206 207 202 220 219 211 219 218 233 229 222 217 215 215 217 219 220 220 209 219 221 223 236 210 206 200 192 170 200 195 214 211 196 199 201 184 177 174 172
223 220 218 210 209 208 201 215 208 219 237 234 226 232 226 223 222 216 219 216 208 213 218 224 230 237 257 211 204 197 176 181 197 212 217 203 191 196 199 191 177 177 176
228 222 219 213 208 207 206 216 220 236 237 240 222 225 228 227 228 226 233 230 229 234 223 235 243 252 239 200 196 190 174 184 192 197 206 189 193 199 206 179 181 184 185
229 224 216 215 210 206 208 211 210 222 237 238 229 225 233 228 231 229 237 238 237 233 232 248 246 253 213 212 189 180 179 176 181 195 200 186 187 192 190 186 191 194 194
229 224 213 213 211 208 206 208 210 211 214 248 230 228 231 233 231 235 231 233 236 236 244 246 246 233 204 195 187 171 179 175 179 188 191 181 190 185 195 200 199 202 203
230 226 214 210 210 210 204 207 209 210 212 219 220 224 232 230 232 231 236 237 236 239 245 249 239 236 221 197 186 167 184 172 179 176 188 187 196 195 196 200 204 207 214
228 226 215 210 212 207 205 205 209 212 223 216 219 220 226 228 236 232 236 239 237 242 244 242 237 214 213 194 178 172 174 177 180 181 177 185 197 191 187 209 198 205 215
226 220 213 209 209 208 215 205 205 218 233 227 235 226 222 222 231 233 234 236 240 246 248 236 232 206 190 197 168 169 171 177 188 187 184 182 199 201 198 203 208 206 214
225 221 215 210 206 211 217 208 208 221 232 225 234 228 218 220 224 229 229 233 235 241 226 234 213 208 199 173 167 162 155 164 180 184 186 185 201 200 207 199 208 204 219
231 225 220 214 210 210 209 201 203 212 224 217 226 226 225 221 230 230 227 231 226 241 225 224 210 206 184 173 177 168 146 162 176 197 203 193 194 206 205 218 211 210 211
239 232 223 219 213 208 207 201 204 202 209 218 218 227 215 220 227 226 229 232 229 226 203 217 212 211 185 183 189 186 189 193 186 193 210 210 199 202 209 218 212 216 216
243 235 222 221 215 208 209 201 204 203 207 205 203 218 221 214 221 229 226 224 220 208 206 202 203 202 193 198 191 198 213 212 223 202 203 210 212 206 206 216 217 222 225
243 236 225 215 214 209 206 201 205 203 197 197 193 210 217 214 213 219 230 228 222 216 218 220 216 214 208 202 208 210 211 205 210 205 209 203 212 219 217 216 221 218 227